Starlink 31219

operational
NORAD ID: 58866 Int'l Des: 2024-019 Owner: SPXS Country: US Constellation: starlink
LEOCIRCULAR

关于 Starlink 31219

正在加载描述...

实时位置

正在加载3D地球...

即将过境

高度历史

Altitude vs Time

uPlot chart will show altitude changes over time

两行轨道根数

1 58866U 24019P 25260.07368470 -.00002307 00000-0 -74367-4 0 9994
2 58866 43.0034 149.1122 0001488 257.6882 102.3803 15.27565824 92517
Epoch: Sep 17, 2025 • Age: 22 hours

当前状态

高度 495.2 km
速度 7.62 km/s
星下点 -42.49°S, 78.45°E
发射日期 Jan 29, 2024
运行时间 1.6 years
类型 internet

技术详情

分类 Payload
质量 730.00 kg
干质量 700.00 kg
总质量 730.00 kg
长度 0.30 m
直径 4.10 m
跨度 29.00 m
形状 Box + pan
制造商 SPXS
平台类型 Starlink V2M
阶段状态 In Orbit
所有者/国家 SPXS/US

大型星座

Loading constellations...